Find Local Weather

World > North America > United States > California

Pioneertown, California Regional Weather

Lat: 34.16N, Lon: 116.5W
Wx Zone: CAZ060
Feedback
Expires:201811171800;;449189
ASUS46 KLOX 171713
RWRCA 

SOUTHERN CALIFORNIA WEATHER ROUNDUP
NATIONAL WEATHER SERVICE OXNARD CALIFORNIA
900 AM PST SAT NOV 17 2018

NOTE: "FAIR" INDICATES FEW OR NO CLOUDS BELOW 12,000 FEET WITH NO 
SIGNIFICANT WEATHER AND/OR OBSTRUCTIONS TO VISIBILITY.

  -  STATIONS PRECEEDED BY AN ASTERISK (*) ARE NOT NWS OR FAA 
     STATIONS AND ARE NOT SUBJECT TO NWS AND FAA QUALITY CONTROL.


CAZ028-029-059-060-099-171800-
ANTELOPE VALLEY AND SURROUNDING AREAS

  
CITY           SKY/WX    TMP DP  RH WIND       PRES   REMARKS
LANCASTER      MOSUNNY   44  10  25 CALM      30.08R                  
PALMDALE       MOSUNNY   52  16  24 CALM      30.07R                  
*POPPY PARK      N/A     61  19  19 CALM        N/A                   

CITY           SKY/WX    TMP DP  RH WIND       PRES   REMARKS
29 PALMS       SUNNY     53  22  29 CALM      30.14R                  
BARSTOW/DAGGET MOSUNNY   52  21  29 CALM      30.07R                  
BISHOP         SUNNY     48  12  23 N5        30.12R                  
CHINA LAKE     MOSUNNY   43   7  22 CALM      30.07S                  
EDWARDS AFB    MOSUNNY   47  11  23 CALM      30.05S                  
MOJAVE         SUNNY     54  10  17 CALM      30.06S                  
NEEDLES        SUNNY     61  18  18 CALM      30.07R                  
VICTORVILLE    SUNNY    N/A N/A N/A SE7       30.07R                  

$$


SKY/WX - Weather  TMP - Temperature  DP - Dew Point  RH - Relative Humidity
WIND - Wind Direction/Speed PRES - Barometric Pressure